Location: Austin
(30.3000°N, 97.7500°W)
Time: 01:45:59
(UTC-06:00)

Cosmos 2237 Rocket - Pass Details

Date: 20 November 2023
Orbit: 835 x 848 km, 71.0° (Epoch: 04 December)

Event Time Altitude Azimuth Distance (km) Brightness Sun altitude
Rises 20:23:10 0° 326° (NW) 3,389 5.7 -36.6°
Reaches altitude 10° 20:25:55 10° 315° (NW) 2,450 5.0 -37.2°
Maximum altitude 20:30:36 28° 258° (WSW) 1,515 3.9 -38.3°
Enters shadow 20:30:47 28° 255° (WSW) 1,517 3.9 -38.3°
